MST,Max TemperatureF,Mean TemperatureF,Min TemperatureF,Max Dew PointF,MeanDew PointF,Min DewpointF,Max Humidity, Mean Humidity, Min Humidity, Max Sea Level PressureIn, Mean Sea Level PressureIn, Min Sea Level PressureIn, Max VisibilityMiles, Mean VisibilityMiles, Min VisibilityMiles, Max Wind SpeedMPH, Mean Wind SpeedMPH, Max Gust SpeedMPH,PrecipitationIn, CloudCover, Events, WindDirDegrees
2013-2-1,40,32,24,33,28,23,100,82,64,30.27,30.13,30.00,10,10,4,37,7,48,0.04,7,Snow,299
2013-2-2,39,28,16,26,18,11,77,66,54,30.37,30.32,30.18,10,10,10,18,5,22,0.00,0,,254
2013-2-3,47,31,14,23,15,7,74,53,31,30.24,30.06,29.94,10,10,10,13,4,14,0.00,0,,235
2013-2-4,41,28,15,27,21,11,81,65,48,30.00,29.93,29.85,10,10,10,8,2,9,0.00,7,,207
2013-2-5,41,31,21,28,24,18,84,69,54,30.05,29.92,29.82,10,10,10,6,4,7,0.00,3,,205
2013-2-6,41,32,23,26,22,14,88,71,54,30.14,29.97,29.80,10,10,10,26,8,34,0.00,5,,309
2013-2-7,36,24,12,24,16,6,84,67,50,30.19,30.04,29.86,15,11,10,12,4,,0.00,2,,253
2013-2-8,42,30,18,23,17,12,84,65,45,30.03,29.95,29.84,20,11,10,13,7,15,0.00,2,,307
2013-2-9,37,29,21,27,23,16,88,75,61,29.94,29.86,29.77,10,7,0,16,5,155,0.05,7,Fog-Snow,295
2013-2-10,29,21,13,25,19,9,92,80,68,30.25,30.00,29.80,10,4,0,32,18,37,T,8,Fog-Snow,314
2013-2-11,26,13,-1,13,4,-4,91,71,50,30.25,30.16,30.09,10,10,10,12,3,14,0.00,0,,197
2013-2-12,38,25,11,24,15,5,78,63,47,30.18,30.10,29.95,10,10,10,12,2,32,0.00,4,,214
2013-2-13,43,32,20,31,26,14,92,71,49,30.11,29.97,29.82,10,6,0,33,11,43,0.13,7,Fog-Snow,303
2013-2-14,29,26,22,27,20,12,92,73,53,30.41,30.25,30.03,10,5,0,31,14,37,0.07,7,Fog-Snow,300
2013-2-15,34,26,17,22,20,12,88,71,53,30.45,30.33,30.20,10,6,1,21,7,24,0.06,7,Snow,295
2013-2-16,46,31,16,28,21,11,80,61,42,30.22,30.03,29.81,15,10,10,9,3,12,0.00,0,,209
2013-2-17,37,30,23,30,26,16,92,75,58,30.01,29.79,29.67,10,6,0,38,15,45,0.06,6,Fog-Snow,309
2013-2-18,29,14,-1,25,19,-4,95,82,68,30.22,30.07,29.94,10,5,0,24,7,29,0.21,6,Fog-Snow,317
2013-2-19,23,9,-6,13,6,-8,95,81,67,30.21,30.02,29.89,10,10,10,9,2,13,0.00,0,,294
2013-2-20,25,16,7,18,14,7,92,83,74,29.99,29.91,29.76,10,10,10,21,7,24,0.00,3,,287
2013-2-21,28,17,5,18,13,3,91,80,68,30.07,30.01,29.88,10,10,10,30,4,159,0.00,5,,272
2013-2-22,36,20,3,18,8,0,88,67,45,30.08,29.96,29.75,10,10,10,9,4,15,0.00,3,,189
2013-2-23,37,27,16,31,24,11,100,76,52,30.00,29.78,29.57,10,5,0,31,8,38,0.17,8,Fog-Snow,303
2013-2-24,32,18,4,25,17,1,85,72,59,30.23,30.14,29.97,10,10,6,24,11,28,T,4,Snow,295
2013-2-25,40,21,2,21,11,-2,86,65,44,30.17,30.01,29.89,10,10,10,17,5,22,0.00,2,,216
2013-2-26,36,28,20,26,20,18,85,69,52,30.29,30.12,29.92,10,10,10,12,12,17,0.00,6,,304
2013-2-27,36,24,11,18,11,6,88,65,41,30.34,30.31,30.18,10,10,10,13,3,15,0.00,1,,237
2013-2-28,40,29,18,20,16,11,73,55,37,30.35,30.30,30.16,10,10,10,13,3,14,0.00,5,,240